* Astronomy

Members Login
Username 
 
Password 
    Remember Me  
Post Info TOPIC: Asteroid 2012 VF5


L

Posts: 131433
Date:
Asteroid 2012 VF5
Permalink  
 


Orbital elements:
2012 VF5                                                 Earth MOID = 0.2302 AU
Epoch 2012 Sept. 30.0 TT = JDT 2456200.5                MPC
M 351.13136              (2000.0)            P               Q
n   0.29053145     Peri.  345.34451     +0.99510892     +0.00644592
a   2.2577401      Node    15.34205     +0.06460473     +0.71241421
e   0.4585834      Incl.   21.87382     -0.07472924     +0.70172961
P   3.39           H   18.8           G   0.15           U   8

MPEC 2012 - V15



__________________
Page 1 of 1  sorted by
 
Quick Reply

Please log in to post quick replies.



Create your own FREE Forum
Report Abuse
Powered by ActiveBoard